www.pogodaiklimat.ru

Погода и климат >> Архив погоды >> Нидерланды >> Де Билт


АРХИВ ПОГОДЫ в Де Билте

Время (UTC), дата Ветер
(напр.,м/с)
 
Видим.   Явления Облачность Т
(С)
Тd
(С)
f
(%)
Тe
(С)
Тes
(С)
Комфортность P
(гПа)
Po
(гПа)
Тmin
(С)
Tmax
(С)
R
(мм)
R24
(мм)
S
(см)
16 14.07 СЗ 4 30 км 9/9 1000 м
[]
+18.6 +11.1 62 +19 +19 1020.3 1020.1
17 14.07 С 3 45 км 10/10 1000 м
[]
+16.8 +11.4 70 +17 +17 1020.7 1020.2
18 14.07 С 4-8
{9}
45 км 9/9 800 м
[]
+16.3 +10.4 68 +16 +16 1020.8 1020.4 +19.3
19 14.07 С 3 45 км 10/10 1000 м
[]
+15.8 +9.6 67 +15 +15 1020.9 1020.5
20 14.07 С 2 45 км 10/10 600 м
[]
+15.3 +10.1 71 +15 +15 1021.2 1020.8
21 14.07 С 2-4
{6}
45 км 10/10 750 м
[]
+15.0 +10.4 74 +15 +15 1021.1 1020.7
22 14.07 СЗ 2-4
{4}
45 км 10/10 600 м
[]
+14.7 +10.6 76 +14 +14 1021.0 1020.6
23 14.07 С 2-3
{4}
45 км 10/10 600 м
[]
+14.5 +11.0 80 +14 +14 1021.0 1020.6
00 15.07 СЗ 2-4
{4}
35 км 10/10 500 м
[]
+14.5 +11.4 82 +14 +14 1020.9 1020.6
01 15.07 С 2-4
{4}
14 км слаб. ливневой дождь {морось} 10/10 600 м
[]
+14.2 +11.8 85 +14 +14 1020.8 1020.4
02 15.07 С 3-5
{6}
19 км в посл. час дождь {ливн. осадки} 10/10 600 м
[]
+14.1 +11.2 83 +13 +13 1020.3 1019.9
03 15.07 С 2-3
{6}
9000 м слаб. морось {дождь} 10/10 210 м
[]
+13.5 +12.0 91 +13 +13 1020.1 1019.7
04 15.07 СЗ 1 26 км в посл. час морось {ливн. осадки, дождь} 10/10 600 м
[]
+13.6 +11.3 86 +14 +14 1020.4 1020.0
05 15.07 С 2 45 км {ливн. осадки, морось} 10/10 600 м
[]
+13.8 +10.6 81 +13 +13 1020.4 1020.0
06 15.07 С 2-4
{5}
40 км {ливн. осадки, морось} 10/10 660 м
[]
+14.2 +10.9 81 +14 +14 1020.5 1020.1 +13.4
07 15.07 С 2 40 км 10/10 600 м
[]
+14.4 +9.8 74 +14 +14 1020.7 1020.3
08 15.07 С 2 45 км 10/10 600 м
[]
+15.0 +9.9 72 +15 +15 1021.0 1020.5
09 15.07 С 4-6
{6}
45 км 10/10 570 м
[]
+15.4 +10.0 70 +14 +14 1020.9 1020.5
10 15.07 С 3 40 км 10/10 1000 м
[]
+16.3 +9.7 65 +16 +16 1020.7 1020.3
11 15.07 СЗ 3 40 км 10/10 600 м
[]
+15.9 +10.1 68 +15 +15 1020.8 1020.5
12 15.07 СЗ 3-5
{6}
35 км 10/10 630 м
[]
+16.6 +10.9 69 +16 +18 1020.8 1020.4
13 15.07 СЗ 3 35 км 10/9 1000 м
[]
+17.1 +11.2 68 +17 +18 1020.7 1020.2
14 15.07 СЗ 3 40 км 10/9 600 м
[]
+16.7 +11.7 72 +16 +17 1020.8 1020.3
15 15.07 СЗ 3-5
{6}
40 км 10/10 570 м
[]
+17.8 +12.2 70 +18 +19 1020.4 1020.3
16 15.07 СЗ 4 45 км 10/10
[]
+18.3 +12.3 68 +18 +18 1020.4 1019.9
17 15.07 СЗ 3 45 км 9/6 600 м
[]
+17.4 +11.2 67 +17 +18 1020.1 1019.7
18 15.07 С 3-5
{7}
45 км 9/9 630 м
[]
+16.7 +11.6 72 +16 +17 1020.0 1019.6 +18.5
19 15.07 С 2 45 км 9/9
[]
+15.7 +11.0 74 +16 +16 1020.1 1019.7
20 15.07 С 3 45 км 10/10 600 м
[]
+15.3 +10.3 72 +15 +15 1020.3 1019.9
21 15.07 СЗ 1-2
{5}
45 км 10/10 750 м
[]
+14.9 +10.8 76 +15 +15 1020.3 1019.9
22 15.07 С 2-4
{4}
45 км 10/10 600 м
[]
+14.9 +10.6 75 +15 +15 1020.3 1019.9
23 15.07 СЗ 2-3
{3}
45 км 10/10 600 м
[]
+14.7 +11.2 80 +14 +14 1020.2 1019.8
00 16.07 СЗ 2-3
{4}
45 км 10/10 500 м
[]
+14.3 +11.0 81 +14 +14 1020.2 1019.8
01 16.07 З 1-1
{2}
45 км 10/10 300 м
[]
+14.0 +11.7 86 +14 +14 1020.0 1019.7
02 16.07 штиль 0
{3}
45 км 10/10 600 м
[]
+14.0 +12.0 88 +14 +14 1019.6 1019.3
03 16.07 СЗ 1-2
{3}
45 км 10/10 570 м
[]
+14.3 +11.1 81 +15 +15 1019.3 1018.9
04 16.07 СЗ 1 45 км 10/10 600 м
[]
+14.5 +9.7 73 +15 +15 1019.3 1018.9
05 16.07 СЗ 1 45 км 10/10 600 м
[]
+14.6 +10.1 74 +15 +15 1019.4 1019.0
06 16.07 С 1-2
{4}
40 км 10/10 630 м
[]
+14.9 +10.6 75 +15 +15 1019.5 1019.1 +13.9
07 16.07 С 1 45 км 10/10 600 м
[]
+15.1 +10.9 76 +16 +16 1019.7 1019.3
08 16.07 С 1 40 км 10/10 600 м
[]
+15.3 +10.6 74 +16 +16 1019.7 1019.3
09 16.07 З 2-3
{4}
45 км 10/10 600 м
[]
+15.7 +10.8 73 +16 +16 1019.7 1019.3
10 16.07 З 2 40 км 10/10 600 м
[]
+16.3 +11.0 71 +16 +16 1019.5 1019.1
11 16.07 З 2 35 км 10/10 600 м
[]
+16.8 +11.3 70 +17 +17 1019.3 1019.0
12 16.07 З 2-3
{4}
40 км 10/10 660 м
[]
+17.2 +11.6 70 +18 +18 1019.2 1018.9
13 16.07 З 2 35 км 10/10 600 м
[]
+17.3 +11.6 69 +18 +18 1019.1 1018.7
14 16.07 С 2 45 км 10/10 600 м
[]
+17.6 +11.9 69 +18 +18 1018.9 1018.5
15 16.07 С 2-3
{4}
40 км 10/10 750 м
[]
+18.0 +11.9 68 +19 +19 1018.6 1018.2
16 16.07 Ю 1 35 км 10/10 600 м
[]
+18.5 +11.4 63 +20 +20 1018.2 1017.8
17 16.07 В 2 40 км 10/10 600 м
[]
+18.5 +12.7 69 +20 +20 1017.9 1017.5
18 16.07 В 1-2
{4}
45 км 9/0
[]
+18.5 +12.3 67 +20 +20 1017.9 1017.4 +19.1
19 16.07 ЮВ 1 45 км 1/1
[]
+17.7 +13.1 74 +19 +19 1017.6 1017.2
20 16.07 штиль 0 45 км 9/9 600 м
[]
+15.2 +13.1 87 +15 +15 1017.7 1017.3
21 16.07 Ю 1-1
{1}
35 км в посл. час дождь 8/8 870 м
[]
+14.8 +12.9 88 +15 +15 1017.8 1017.4
22 16.07 СЗ 2-4
{4}
14 км {ливн. осадки} ясно +14.3 +12.7 90 +14 +14 1017.8 1017.4
23 16.07 -1
{2}
5000 м дымка {ливн. осадки} ясно +11.9 +11.3 96 1017.5 1017.1
00 17.07 С 1-1
{4}
5000 м дымка {ливн. осадки} 5/0
[]
+10.8 +10.4 97 +10 +10 1017.5 1017.2
01 17.07 С 1-1
{1}
600 м туман {дымка} 5/5
[]
+9.8 +9.3 97 +9 +9 1017.3 1016.9
02 17.07 С 1-1
{1}
1900 м в посл. час туман {дымка} 8/8
[]
+9.5 +9.2 98 +9 +9 1016.9 1016.6
03 17.07 С 1-1
{1}
5000 м в посл. час туман {дымка} 3/0
[]
+9.1 +8.8 98 +8 +8 1016.8 1016.4
04 17.07 СВ 1 500 м туман {дымка} 8/8
[]
+8.7 +8.5 99 +8 +8 1016.8 1016.4
05 17.07 СВ 1 4900 м в посл. час туман {дымка} ясно +11.3 +11.1 99 +11 +12 1016.5 1016.2
06 17.07 В 1-2
{2}
8000 м дымка {туман} ясно +13.8 +12.1 89 +14 +17 1016.6 1016.2 +8.7
07 17.07 В 1 11 км ясно +16.0 +12.8 81 +17 +23 1016.8 1016.3
08 17.07 В 1 13 км ясно +18.0 +13.1 73 +19 +29 1016.6 1016.2
09 17.07 ЮВ 1-2
{3}
15 км ясно +18.9 +13.0 69 +21 +35 комфорт 1016.2 1015.9
10 17.07 ЮВ 2 14 км 3/3 600 м
[]
+20.1 +13.6 66 +23 +33 комфорт 1016.1 1015.8
11 17.07 Ю 2 22 км ясно +21.1 +13.4 61 +23 +39 комфорт 1016.0 1015.6
12 17.07 З 2-4
{5}
23 км ясно +22.1 +12.8 56 +25 +41 комфорт 1015.6 1015.2
13 17.07 ЮЗ 2 30 км 8/8 1000 м
[]
+23.1 +13.3 54 +26 +29 жарко 1015.0 1014.6
14 17.07 Ю 1 26 км 4/4 1500 м
[]
+23.9 +13.0 50 +26 +35 жарко 1014.7 1014.4
15 17.07 ЮЗ 2-4
{4}
35 км 9/1 1500 м
[]
+24.3 +12.2 47 +26 +27 жарко 1014.4 1014.0
16 17.07 В 2 45 км 10/10
[]
+23.8 +13.3 52 +26 +26 жарко 1013.7 1013.4
17 17.07 В 2 45 км 10/10
[]
+22.1 +13.7 59 +25 +26 комфорт 1013.5 1013.1
18 17.07 В 1-2
{4}
45 км 10/1
[]
+22.6 +13.3 56 +26 +26 жарко 1013.2 1012.8 +24.8
19 17.07 ЮВ 1 45 км 10/10
[]
+20.8 +14.0 65 +25 +25 комфорт 1013.2 1012.8
20 17.07 штиль 0 45 км 10/10
[]
+18.0 +15.0 83 +18 +18 1013.3 1012.8
21 17.07 В 1-1
{1}
40 км в посл. час дождь 10/0
[]
+16.4 +14.8 90 +17 +17 1013.1 1012.7
22 17.07 В 1-1
{1}
30 км {ливн. осадки} 10/10
[]
+15.3 +14.5 95 +16 +16 1012.9 1012.5
23 17.07 В 1-2
{2}
29 км {ливн. осадки} 10/10
[]
+15.0 +14.4 96 +15 +15 1012.7 1012.3
00 18.07 В 2-3
{3}
30 км {ливн. осадки} 10/0
[]
+15.3 +13.7 90 +15 +15 1012.4 1012.0
01 18.07 ЮВ 2-2
{3}
21 км 10/10
[]
+15.4 +13.7 90 +15 +15 1011.9 1011.5
02 18.07 ЮВ 3-4
{4}
21 км 10/10
[]
+16.6 +12.6 77 +16 +16 1011.4 1011.1
03 18.07 ЮВ 2-3
{4}
16 км 10/10
[]
+16.1 +12.8 81 +16 +16 1011.2 1010.8
04 18.07 ЮВ 3 13 км 10/10 2000 м
[]
+16.4 +12.4 77 +16 +16 1011.0 1010.6
05 18.07 Ю 2 9000 м дымка 9/9
[]
+16.1 +12.5 79 +16 +16 1010.9 1010.5
06 18.07 ЮВ 3-4
{5}
7000 м дым 10/10 2000 м
[]
+17.3 +13.1 76 +17 +17 1010.7 1010.4 +15.0
07 18.07 ЮВ 3 8000 м дым 10/10
[]
+19.2 +13.9 71 +21 +21 комфорт 1010.4 1010.0
08 18.07 Ю 3 11 км 10/10
[]
+19.6 +13.5 68 +21 +21 комфорт 1010.6 1010.2
09 18.07 Ю 4-6
{6}
13 км 10/3
[]
+21.2 +13.7 62 +24 +24 комфорт 1010.5 1010.1
10 18.07 Ю 4 24 км 10/10
[]
+22.6 +13.5 56 +26 +26 жарко 1010.5 1010.0
11 18.07 ЮЗ 5 30 км 10/10
[]
+22.1 +12.9 56 +25 +25 комфорт 1010.7 1010.3
12 18.07 ЮЗ 5-7
{8}
18 км 10/6 960 м
[]
+21.6 +13.9 62 +24 +26 комфорт 1010.7 1010.3
13 18.07 ЮЗ 4 28 км 10/10
[]
+21.8 +12.4 55 +24 +24 комфорт 1010.8 1010.5
14 18.07 ЮЗ 3 30 км 10/10
[]
+21.5 +13.5 60 +24 +24 комфорт 1010.9 1010.5
15 18.07 ЮЗ 4-7
{7}
30 км 10/10 960 м
[]
+21.1 +13.9 63 +24 +24 комфорт 1010.8 1010.4
16 18.07 ЮЗ 3 26 км 10/9 1000 м
[]
+21.3 +14.6 66 +24 +25 комфорт 1010.7 1010.4
17 18.07 ЮЗ 4 16 км 10/10 1000 м
[]
+20.8 +14.4 67 +24 +24 комфорт 1010.5 1010.1
18 18.07 ЮЗ 4-7
{9}
7000 м морось {ливн. осадки, дождь} 10/10 270 м
[]
+18.0 +16.1 89 +18 +18 1010.9 1010.5 +22.7 0.3
19 18.07 ЮЗ 4 5000 м морось с дождем 10/6 600 м
[]
+17.8 +16.5 92 +18 +18 1011.0 1010.6 0.3
20 18.07 ЮЗ 4 28 км в посл. час дождь {ливн. осадки} 10/10 1000 м
[]
+18.3 +16.2 88 +19 +19 1011.4 1010.9 0.1
21 18.07 ЮЗ 3-5
{7}
18 км слаб. ливневой дождь 10/10 630 м
[]
+18.1 +16.1 88 +18 +18 1011.7 1011.2
22 18.07 ЮЗ 3-4
{6}
28 км в посл. час дождь {ливн. осадки} 10/9 1000 м
[]
+17.9 +15.4 85 +18 +18 1011.9 1011.5
23 18.07 ЮЗ 3-4
{4}
35 км {ливн. осадки, дождь} 10/10
[]
+17.7 +15.1 85 +18 +18 1011.9 1011.5
00 19.07 З 2-4
{6}
30 км {ливн. осадки, дождь} 10/5 1500 м
[]
+17.0 +14.6 86 +17 +17 1012.1 1011.7
01 19.07 ЮЗ 2-2
{3}
24 км 10/10
[]
+16.0 +14.5 91 +16 +16 1012.3 1011.8
02 19.07 ЮЗ 1-2
{3}
14 км 10/10
[]
+15.1 +14.1 94 +16 +16 1012.5 1012.1
03 19.07 Ю 1-2
{3}
6000 м дымка 10/10 400 м
[]
+14.2 +13.8 97 +14 +14 1012.5 1012.0
04 19.07 ЮЗ 2 18 км 10/9 300 м
[]
+15.5 +14.8 96 +15 +15 1012.7 1012.2
05 19.07 ЮЗ 1 22 км 6/6 1500 м
[]
+16.0 +14.5 91 +17 +17 1012.9 1012.5
06 19.07 Ю 2-3
{3}
19 км 10/10 240 м
[]
+17.5 +15.3 87 +18 +18 1013.1 1012.7 +14.1
07 19.07 Ю 3 16 км 6/6
[]
+18.0 +15.1 83 +18 +20 1013.6 1013.1
08 19.07 Ю 2 13 км 9/9 300 м
[]
+19.3 +15.8 80 +22 +22 комфорт 1013.8 1013.4
09 19.07 ЮЗ 3-4
{4}
13 км 10/6 480 м
[]
+20.0 +15.3 74 +23 +25 комфорт 1013.8 1013.4
10 19.07 ЮЗ 3 15 км 9/9
[]
+21.0 +15.3 70 +25 +26 комфорт 1013.5 1013.2
11 19.07 Ю 3 19 км 10/10
[]
+21.3 +14.9 67 +24 +24 комфорт 1013.7 1013.3
12 19.07 ЮЗ 3-7
{7}
28 км 10/10
[]
+23.2 +11.2 47 +25 +25 комфорт 1013.6 1013.3
13 19.07 Ю 3 30 км 10/10
[]
+23.5 +13.2 52 +26 +26 жарко 1013.6 1013.2
14 19.07 Ю 4 23 км 9/9
[]
+24.1 +13.4 51 +26 +27 жарко 1013.4 1013.1
15 19.07 Ю 4-6
{8}
28 км 9/8 1260 м
[]
+23.2 +13.5 54 +26 +27 жарко 1013.2 1012.8
16 19.07 ЮЗ 3 35 км 10/10 1500 м
[]
+23.1 +13.3 54 +26 +26 жарко 1012.9 1012.5
17 19.07 ЮЗ 2 35 км 10/10 1500 м
[]
+22.7 +13.4 56 +26 +26 жарко 1012.9 1012.5
18 19.07 С 2-2
{6}
45 км 10/10 1500 м
[]
+21.5 +14.2 63 +24 +24 комфорт 1012.9 1012.5 +24.3
19 19.07 СЗ 2 45 км 10/10 1500 м
[]
+20.8 +14.2 66 +24 +24 комфорт 1013.0 1012.6
20 19.07 СВ 1 40 км 10/10 1500 м
[]
+19.3 +14.3 73 +22 +22 комфорт 1012.9 1012.4
21 19.07 С 1-2
{3}
45 км 10/10 1500 м
[]
+19.2 +13.9 71 +22 +22 комфорт 1012.6 1012.2
22 19.07 С 1-2
{2}
30 км 10/10
[]
+16.9 +15.0 89 +18 +18 1012.3 1011.9
23 19.07 В 1-3
{3}
35 км 10/10
[]
+17.0 +14.8 87 +18 +18 1011.7 1011.3
00 20.07 ЮВ 2-2
{3}
25 км 10/6 2000 м
[]
+16.3 +14.8 91 +16 +16 1011.3 1011.0
01 20.07 ЮВ 3-4
{5}
40 км 10/10 2000 м
[]
+19.1 +13.1 68 +20 +20 1010.7 1010.3
02 20.07 ЮВ 3-4
{4}
45 км 10/10
[]
+18.5 +13.1 71 +19 +19 1010.1 1009.8
03 20.07 ЮВ 3-4
{5}
40 км 10/6
[]
+18.2 +13.3 73 +19 +19 1009.6 1009.2
04 20.07 Ю 3 40 км 10/10
[]
+17.9 +13.7 76 +18 +18 1009.3 1009.0
05 20.07 ЮВ 3 35 км 10/10
[]
+18.3 +14.3 77 +19 +19 1009.0 1008.6
06 20.07 Ю 4-6
{6}
30 км 10/9
[]
+20.2 +15.3 73 +23 +23 комфорт 1008.6 1008.2 +16.1
07 20.07 ЮЗ 4 35 км в посл. час дождь {ливн. осадки} 10/10 1500 м
[]
+19.8 +15.2 75 +22 +22 комфорт 1009.7 1009.2
08 20.07 ЮЗ 3 40 км слаб. ливневой дождь 10/10 1500 м
[]
+19.0 +15.8 82 +21 +21 комфорт 1010.0 1009.5 0.1
09 20.07 Ю 4-7
{9}
30 км слаб. морось с дождем 10/10 1500 м
[]
+18.2 +15.5 84 +18 +18 1010.0 1009.0 0.4
10 20.07 Ю 3 8000 м гроза, ливневой дождь 10/10
[]
+16.8 +15.4 91 +17 +17 1010.4 1009.9 3
11 20.07 Ю 2 30 км слаб. дождь {гроза} 10/10 2000 м
[]
+17.2 +16.1 93 +18 +18 1010.0 1009.4 4
12 20.07 Ю 4-6
{8}
29 км в посл. час дождь {гроза, ливн. осадки} 10/10 210 м
[]
+19.1 +16.8 87 +21 +22 комфорт 1010.2 1009.7 0.6
13 20.07 Ю 3 30 км в посл. час дождь {ливн. осадки} 10/10
[]
+20.5 +17.0 80 +24 +24 комфорт 1010.1 1009.7 0.1
14 20.07 Ю 2 35 км {ливн. осадки} 10/10
[]
+21.0 +16.8 77 +25 +25 комфорт 1009.7 1009.3
15 20.07 Ю 3-6
{6}
28 км в посл. час дождь 4/4
[]
+22.8 +17.8 73 +28 +33 душно 1009.2 1008.9
16 20.07 З 3 35 км гроза без осадков {ливн. осадки} 10/10
[]
+22.4 +17.3 73 +27 +27 душно 1010.0 1009.6
17 20.07 З 3 30 км в посл. час гроза без осадков {ливн. осадки} 5/5 1000 м
[]
+22.3 +18.0 77 +27 +29 душно 1010.4 1010.0 0.3
18 20.07 З 6-10
{11}
45 км {гроза, ливн. осадки} 1/1 930 м
[]
+21.5 +13.6 61 +24 +25 комфорт 1011.0 1010.5 +23.6
19 20.07 З 4 45 км ясно +20.4 +14.2 68 +23 +23 комфорт 1011.4 1010.9
20 20.07 ЮЗ 4 45 км ясно +19.4 +14.4 73 +21 +21 комфорт 1012.3 1011.7
21 20.07 ЮЗ 5-8
{10}
45 км 3/3 1500 м
[]
+18.8 +13.3 70 +19 +19 1012.9 1012.5
22 20.07 ЮЗ 4-7
{8}
40 км 4/4 1500 м
[]
+18.2 +14.0 76 +18 +18 1013.7 1013.3
23 20.07 ЮЗ 4-7
{7}
35 км 3/1 1000 м
[]
+17.9 +14.3 79 +18 +18 1014.2 1013.7
00 21.07 ЮЗ 4-6
{9}
30 км ясно +17.4 +14.5 83 +17 +17 1014.3 1013.9
01 21.07 ЮЗ 3-6
{6}
22 км 6/6 1500 м
[]
+17.1 +14.8 86 +17 +17 1014.7 1014.4
02 21.07 ЮЗ 2-4
{5}
16 км 3/3 1000 м
[]
+16.5 +15.0 91 +17 +17 1015.3 1014.8
03 21.07 ЮЗ 2-3
{6}
13 км 6/5 2000 м
[]
+16.1 +15.0 93 +16 +16 1015.8 1015.3
04 21.07 ЮЗ 2 11 км 4/4 2000 м
[]
+15.7 +15.0 96 +16 +16 1016.5 1016.0
05 21.07 З 2 22 км 10/10 1000 м
[]
+16.6 +14.8 89 +17 +17 1017.5 1017.0
06 21.07 З 2-4
{4}
45 км 9/9 1260 м
[]
+17.7 +13.7 77 +18 +18 1018.1 1017.6 +15.7
07 21.07 З 3 40 км 5/5 1500 м
[]
+18.8 +12.5 67 +20 +22 1018.8 1018.4
08 21.07 З 3 35 км 9/9
[]
+19.6 +11.5 59 +21 +22 комфорт 1019.6 1019.1
09 21.07 З 4-6
{7}
35 км 9/4 1300 м
[]
+20.6 +12.1 58 +23 +24 комфорт 1020.2 1019.8
10 21.07 З 3 45 км 9/9 1000 м
[]
+20.6 +11.8 57 +23 +24 комфорт 1020.5 1020.2
11 21.07 З 3 40 км 9/9 1500 м
[]
+21.1 +11.8 55 +23 +24 комфорт 1021.1 1020.8
12 21.07 З 4-6
{7}
35 км 9/9 1230 м
[]
+21.2 +11.6 54 +23 +24 комфорт 1021.6 1021.2
13 21.07 СЗ 4 40 км 9/9
[]
+21.8 +10.7 49 +24 +25 комфорт 1021.9 1021.6
14 21.07 З 3 35 км 10/10
[]
+22.3 +11.4 50 +24 +24 комфорт 1022.3 1021.8
15 21.07 З 3-5
{7}
45 км 10/9 1410 м
[]
+22.4 +11.2 49 +25 +25 комфорт 1022.2 1021.9

 

Местоположение метеостанции Де Билт (Нидерланды): широта 52.10 долгота 5.18 высота над уровнем моря 4 м.

В архиве по умолчанию представлена погода в Де Билте за последнюю неделю. Архивные данные за месяц целиком и за предыдущие месяцы, начиная с января 2011 года, Вы можете получить, выбрав интересующий диапазон дат из раскрывающегося списка и нажав кнопку "Ввод!".


*Определитесь, кто Вы:
робот инопланетянин человек

Внимание! Время в таблицах - всемирное. Для получения местного времени необходимо прибавить поправку, которая равна 1 ч.

Смотрите также архив погоды в соседних городах и на ближайших метеорологических станциях:

Погода на Вышке Cabauw Tower (Нидерланды) (22 км)
Погода в Хервиньене (Нидерланды) (26 км)
Погода в Амстердаме (Нидерланды) (36 км)
Погода в Лелистаде (Нидерланды) (46 км)
Погода в Дилене (Нидерланды) (48 км)
Погода в Ворсхотене (Нидерланды) (51 км)
Погода в Валкенбурге (Нидерланды) (53 км)
Погода в Роттердам аэропорту (Нидерланды) (53 км)
Погода в Вейк-ан-Зе (Нидерланды) (57 км)
Погода в Эймёйдене (Нидерланды) (58 км)

Пояснения к столбцам:

Ветер - указаны скорость ветра в м/с - средняя за 10 мин, порывы в срок и между сроками (в фигурных скобках) и направление, откуда дует ветер: С - северный, СВ - северо-восточный, В - восточный, ЮВ - юго-восточный, Ю - южный, ЮЗ - юго-западный, З - западный, СЗ - северо-западный.
Видимость - горизонтальная дальность видимости в метрах или километрах. При видимости от 1 до 10 км при отсутствии осадков обычно наблюдается дымка, при ухудшении видимости до 1 км и менее - туман. В сухую погоду видимость может ухудшаться дымом, пылью или мглою.
Явления - указаны атмосферные явления, наблюдавшиеся в срок или в последний час перед сроком; фигурными скобками обозначены явления, наблюдавшиеся между сроками (за 1-3 часа до срока); квадратными скобками обозначены град или гололедные отложения с указанием их диаметра в мм.
Облачность - указаны через наклонную черту общая и нижняя облачность в баллах и высота нижней границы облаков в метрах; квадратными скобками обозначены формы облаков: Ci - перистые, Cs - перисто-слоистые, Cc - перисто-кучевые, Ac - высококучевые, As - высокослоистые, Sc - слоисто-кучевые, Ns - слоисто-дождевые, Cu - кучевые, Cb - кучево-дождевые. Подробнее классификацию облаков см. в Атласе облаков (PDF).
T - Температура воздуха - температура, измеренная на высоте 2 м над землей.
Td - Температура точки росы - температура, при понижении до которой содержащийся в воздухе водяной пар достигнет насыщения.
f - Относительная влажность воздуха - влажноcть воздуха, измеренная на высоте 2 м над землей.
Te - Эффективная температура - температура, которую ощущает одетый по сезону человек в тени. Характеристика душности погоды. При расчете учитывается влияние влажности воздуха и скорости ветра на теплоощущения человека.
Tes - Эффективная температура на солнце - температура, которую ощущает человек, с поправкой на солнечный нагрев. Характеристика знойности погоды. Зависит от высоты солнца над горизонтом, облачности и скорости ветра. Ночью, в пасмурную погоду, а также при ветре 12 м/с и более поправка равна нулю.
P - Атмосферное давление - приведенное к уровню моря атмосферное давление.
Po - Атмосферное давление - измеренное на уровне метеостанции атмосферное давление.
Tmin - Минимальная температура - минимум температуры воздуха на высоте 2 м над землей.
Tmax - Максимальная температура - максимум температуры воздуха на высоте 2 м над землей.
R - Количество осадков - Количество выпавших осадков за период времени, мм. При наведении курсора мыши на число - период времени, за который выпало указанное количество осадков.
R24 - Количество осадков - Количество выпавших осадков за 24 часа, мм.
S - Снежный покров - Высота снежного покрова, см. При наведении курсора мыши на число - состояние снежного покрова и степень покрытия местности в баллах.